Regional Weather Roundup
Issued by NWS Green Bay, WI

Home | Current Version | Previous Version | Text Only | Print | Product List | Glossary On
Versions: 1 2 3 4 5 6 7 8 9 10 11 12 13 14 15 16 17 18 19 20 21 22 23 24 25 26 27 28 29 30 31 32 33 34 35 36 37 38 39 40 41 42 43 44 45 46 47 48 49 50
000
ASUS43 KGRB 262111
RWRGRB

NORTH-CENTRAL AND NORTHEAST WISCONSIN REGIONAL WEATHER ROUNDUP
NATIONAL WEATHER SERVICE GREEN BAY WI
400 PM CDT SUN MAR 26 2017

WIZ005-009-010>012-018-019-262200-
NORTH CENTRAL WISCONSIN

CITY           SKY/WX    TMP DP  RH WIND       PRES   REMARKS
IRONWOOD       CLOUDY    36  32  87 N7        29.89F
MANITOWISH WTR CLOUDY    37  37 100 N6        29.85S
ARBOR VITAE    CLOUDY    42  39  91 N3        29.84S
EAGLE RIVER    CLOUDY    38  37  98 CALM      29.83F
LAND O LAKES   CLOUDY    40  38  92 N6        29.86S
RHINELANDER    CLOUDY    39  38  96 CALM      29.84F
PHILLIPS       CLOUDY    39  38  96 NW3       29.85S
ANTIGO         CLOUDY    37  37  99 CALM      29.85R
TOMAHAWK       CLOUDY    38  36  91 CALM      29.85S
MERRILL        DRIZZLE   39  39  97 CALM      29.85F
$$

WIZ013-073-262200-
NORTHEAST WISCONSIN

CITY           SKY/WX    TMP DP  RH WIND       PRES   REMARKS
IRON MOUNTAIN  CLOUDY    37  33  85 E3        29.85S
MARINETTE        N/A    N/A N/A N/A MISG        N/A
OCONTO         CLOUDY    37  36  96 NE6       29.87S
$$

WIZ017-030-035>037-045-262200-
CENTRAL WISCONSIN

CITY           SKY/WX    TMP DP  RH WIND       PRES   REMARKS
MEDFORD        DRIZZLE   38  37  95 CALM      29.84S
WAUSAU         CLOUDY    39  37  92 E5        29.84R
MOSINEE        CLOUDY    37  37 100 NE3       29.86S
MARSHFIELD     CLOUDY    40  37  89 E3        29.83F
WISC RAPIDS    CLOUDY    39  39 100 CALM      29.87R FOG
STEVENS POINT  CLOUDY    37  37 100 N5        29.86S FOG
WAUPACA        RAIN      40  39  95 NE3       29.86S
SHAWANO        LGT RAIN  39  37  93 CALM      29.87F
CLINTONVILLE   LGT RAIN  37  37 100 NE7       29.86F
WAUTOMA        RAIN      39  38  96 NE7       29.86S
$$

WIZ038-039-048-051-262200-
FOX VALLEY

CITY           SKY/WX    TMP DP  RH WIND       PRES   REMARKS
NWS GREEN BAY  LGT RAIN  38  38 100 NE10      29.86F
APPLETON       DRIZZLE   39  39 100 NE9       29.84S
OSHKOSH        LGT RAIN  40  39  97 NE8       29.84S FOG
FOND DU LAC    LGT RAIN  42  40  92 N6        29.83S FOG
$$

WIZ022-050-052-262200-
EAST CENTRAL WISCONSIN

CITY           SKY/WX    TMP DP  RH WIND       PRES   REMARKS
EPHRAIM        DRIZZLE   36  36 100 NE5       29.86F
WASHINGTON ISL CLOUDY    35  34  97 NE3       29.88R FOG
STURGEON BAY   LGT RAIN  38  38 100 NE5       29.86F FOG
MANITOWOC      LGT RAIN  41  39  93 NE6       29.85F FOG
SHEBOYGAN      LGT RAIN  40  38  93 NE8       29.83F VSB 1
$$

LMZ563-521-522-541>543-262200-
LAKESHORE

STATION/POSITION TIME  TEMP    WIND        PRES    VSBY  WAVE
                       AIR SEA DIR/SP/G                  HT/PER
                 (UTC) (F)     (DEG/KT/KT) (MB)    (MI)  (FT/S)
SHEBOYGAN LKSHOR 2100   37      10/  9/ 10 1010.6F
KEWAUNEE LKSHORE 2048   37      40/  5/  7 1010.6F
NORTHPORT PIER   2040   35      80/  2/  5 1011.9S
CHAMBERS ISLAND  2040   33      20/  6/  7 1011.9R
MENOMINEE LKSHOR 2048   33      10/ 13/ 15 1010.9F
$$




USA.gov is the U.S. government's official web portal to all federal, state and local government web resources and services.